When you browse on this site, cookies collect data to enhance your experience and personalize the content and advertising you see.
Visit our Privacy Policy to learn more. By continuing to use the site, you agree to this use of cookies and data.
  • In Portugal
  • List of Countries
  • For 7 days
  • Water Temperature
  • Satellite Maps
  • Weather Map
  • Weather Widgets
  • user-avatar
    Login

    Hourly Weather Roscino

    Today, 21 March, Thursday

    Time Temperature Precipitation Wind Pressure Humidity
    00:00 +6°C° 0 mm 5 mps 771 mmHg 93%
    01:00 +6°C° 0 mm 4 mps 771 mmHg 94%
    02:00 +6°C° 0 mm 4 mps 771 mmHg 94%
    03:00 +6°C° 0 mm 4 mps 771 mmHg 95%
    04:00 +6°C° 0 mm 4 mps 771 mmHg 95%
    05:00 +6°C° 0 mm 4 mps 771 mmHg 95%
    06:00 +6°C° 0 mm 4 mps 771 mmHg 95%
    07:00 +6°C° 0 mm 4 mps 771 mmHg 94%
    08:00 +6°C° 0 mm 4 mps 771 mmHg 93%
    09:00 +6°C° 0 mm 5 mps 771 mmHg 91%
    10:00 +6°C° 0 mm 5 mps 771 mmHg 90%
    11:00 +8°C° 0 mm 5 mps 771 mmHg 86%
    12:00 +9°C° 0 mm 5 mps 771 mmHg 82%
    13:00 +10°C° 0 mm 6 mps 771 mmHg 82%
    14:00 +10°C° 0 mm 5 mps 771 mmHg 82%
    15:00 +10°C° 0 mm 5 mps 771 mmHg 83%
    16:00 +10°C° 0 mm 5 mps 770 mmHg 83%
    17:00 +9°C° 0 mm 5 mps 770 mmHg 86%
    18:00 +10°C° 0 mm 4 mps 770 mmHg 88%
    19:00 +10°C° 0 mm 4 mps 771 mmHg 91%
    20:00 +8°C° 0 mm 5 mps 771 mmHg 90%
    21:00 +8°C° 0 mm 5 mps 771 mmHg 89%
    22:00 +8°C° 0 mm 5 mps 771 mmHg 89%
    23:00 +8°C° 0 mm 5 mps 771 mmHg 90%

    Tomorrow, 22 March, Friday

    Time Temperature Precipitation Wind Pressure Humidity
    00:00 +7°C° 0 mm 4 mps 771 mmHg 92%
    01:00 +7°C° 0 mm 4 mps 771 mmHg 93%
    02:00 +7°C° 0 mm 4 mps 771 mmHg 93%
    03:00 +7°C° 0 mm 3 mps 772 mmHg 94%
    04:00 +7°C° 0 mm 3 mps 772 mmHg 94%
    05:00 +7°C° 0 mm 2 mps 772 mmHg 95%
    06:00 +7°C° 0 mm 2 mps 773 mmHg 95%
    07:00 +8°C° 0 mm 1 mps 773 mmHg 95%
    08:00 +9°C° 0 mm 1 mps 773 mmHg 90%
    09:00 +10°C° 0 mm 1 mps 773 mmHg 84%
    10:00 +12°C° 0 mm 1 mps 773 mmHg 79%
    11:00 +12°C° 0 mm 1 mps 773 mmHg 77%
    12:00 +13°C° 0 mm 1 mps 773 mmHg 75%
    13:00 +12°C° 0 mm 0 mps 773 mmHg 72%
    14:00 +13°C° 0 mm 1 mps 773 mmHg 72%
    15:00 +13°C° 0 mm 1 mps 773 mmHg 72%
    16:00 +13°C° 0 mm 1 mps 772 mmHg 72%
    17:00 +12°C° 0 mm 1 mps 772 mmHg 76%
    18:00 +12°C° 0 mm 2 mps 772 mmHg 80%
    19:00 +10°C° 0 mm 2 mps 771 mmHg 84%
    20:00 +9°C° 0 mm 2 mps 771 mmHg 85%
    21:00 +9°C° 0 mm 3 mps 771 mmHg 87%
    22:00 +9°C° 0 mm 3 mps 771 mmHg 88%
    23:00 +9°C° 0 mm 3 mps 770 mmHg 89%

    Day after tomorrow, 23 March, Saturday

    Time Temperature Precipitation Wind Pressure Humidity
    00:00 +9°C° 0 mm 3 mps 770 mmHg 91%
    01:00 +7°C° 0 mm 4 mps 769 mmHg 92%
    02:00 +7°C° 0 mm 4 mps 769 mmHg 92%
    03:00 +7°C° 0 mm 4 mps 768 mmHg 93%
    04:00 +7°C° 0 mm 4 mps 768 mmHg 93%
    05:00 +7°C° 0 mm 4 mps 767 mmHg 92%
    06:00 +7°C° 0 mm 4 mps 767 mmHg 92%
    07:00 +7°C° 0 mm 4 mps 767 mmHg 91%
    08:00 +10°C° 0 mm 4 mps 767 mmHg 86%
    09:00 +12°C° 0 mm 4 mps 767 mmHg 80%
    10:00 +13°C° 0 mm 4 mps 766 mmHg 74%
    11:00 +14°C° 0 mm 4 mps 766 mmHg 72%
    12:00 +15°C° 0 mm 5 mps 766 mmHg 70%
    13:00 +15°C° 0 mm 5 mps 766 mmHg 68%
    14:00 +14°C° 0 mm 6 mps 766 mmHg 71%
    15:00 +11°C° 0 mm 6 mps 766 mmHg 74%
    16:00 +10°C° 0 mm 6 mps 767 mmHg 77%
    17:00 +9°C° 0 mm 5 mps 767 mmHg 76%
    18:00 +7°C° 0 mm 5 mps 768 mmHg 75%
    19:00 +6°C° 0 mm 5 mps 768 mmHg 74%
    20:00 +6°C° 0 mm 4 mps 769 mmHg 73%
    21:00 +5°C° 0 mm 4 mps 769 mmHg 72%
    22:00 +5°C° 0 mm 3 mps 769 mmHg 71%
    23:00 +4°C° 0 mm 3 mps 770 mmHg 72%

    24 March, Sunday

    Time Temperature Precipitation Wind Pressure Humidity
    00:00 +4°C° 0 mm 3 mps 770 mmHg 73%
    01:00 +3°C° 0 mm 3 mps 770 mmHg 74%
    02:00 +3°C° 0 mm 3 mps 770 mmHg 75%
    03:00 +3°C° 0 mm 3 mps 770 mmHg 76%
    04:00 +3°C° 0 mm 3 mps 770 mmHg 77%
    05:00 +3°C° 0 mm 3 mps 770 mmHg 77%
    06:00 +3°C° 0 mm 3 mps 770 mmHg 78%
    07:00 +3°C° 0 mm 3 mps 770 mmHg 78%
    08:00 +4°C° 0 mm 4 mps 770 mmHg 74%
    09:00 +5°C° 0 mm 4 mps 770 mmHg 70%
    10:00 +6°C° 0 mm 5 mps 770 mmHg 66%
    11:00 +6°C° 0 mm 5 mps 770 mmHg 65%
    12:00 +6°C° 0 mm 5 mps 770 mmHg 64%
    13:00 +6°C° 0 mm 5 mps 770 mmHg 63%
    14:00 +6°C° 0 mm 5 mps 769 mmHg 62%
    15:00 +6°C° 0 mm 5 mps 769 mmHg 61%
    16:00 +5°C° 0 mm 6 mps 769 mmHg 60%
    17:00 +5°C° 0 mm 5 mps 769 mmHg 66%
    18:00 +4°C° 0 mm 4 mps 769 mmHg 71%
    19:00 +3°C° 0 mm 3 mps 768 mmHg 76%
    20:00 +3°C° 0 mm 4 mps 768 mmHg 76%
    21:00 +3°C° 0 mm 4 mps 768 mmHg 76%
    22:00 +3°C° 0 mm 4 mps 768 mmHg 76%
    23:00 +2°C° 0 mm 5 mps 768 mmHg 77%

    25 March, Monday

    Time Temperature Precipitation Wind Pressure Humidity
    00:00 +2°C° 0 mm 5 mps 768 mmHg 78%
    01:00 +2°C° 0 mm 5 mps 767 mmHg 78%
    02:00 +1°C° 0 mm 5 mps 767 mmHg 81%
    03:00 +1°C° 0 mm 5 mps 766 mmHg 84%
    04:00 +1°C° 0 mm 6 mps 766 mmHg 87%
    05:00 +1°C° 0.2 mm 6 mps 765 mmHg 86%
    06:00 0°C° 0.2 mm 7 mps 764 mmHg 85%
    07:00 +1°C° 0.2 mm 8 mps 764 mmHg 84%
    08:00 +1°C° 0.6 mm 9 mps 764 mmHg 81%
    09:00 +2°C° 0.6 mm 9 mps 763 mmHg 78%
    10:00 +3°C° 0.6 mm 10 mps 763 mmHg 76%
    11:00 +3°C° 0.3 mm 10 mps 763 mmHg 70%
    12:00 +5°C° 0.3 mm 10 mps 762 mmHg 64%
    13:00 +5°C° 0.3 mm 10 mps 762 mmHg 58%
    14:00 +5°C° 0.2 mm 10 mps 762 mmHg 58%
    15:00 +5°C° 0.2 mm 10 mps 762 mmHg 58%
    16:00 +3°C° 0.2 mm 10 mps 762 mmHg 57%
    17:00 +3°C° 0 mm 9 mps 762 mmHg 59%
    18:00 +2°C° 0 mm 9 mps 762 mmHg 62%
    19:00 +1°C° 0 mm 8 mps 762 mmHg 64%
    20:00 +1°C° 0 mm 8 mps 763 mmHg 65%
    21:00 +3°C° 0 mm 7 mps 763 mmHg 65%
    22:00 +3°C° 0 mm 7 mps 764 mmHg 65%
    23:00 +3°C° 0 mm 6 mps 765 mmHg 71%

    26 March, Tuesday

    Time Temperature Precipitation Wind Pressure Humidity
    00:00 +2°C° 0 mm 5 mps 765 mmHg 76%
    01:00 +1°C° 0 mm 5 mps 766 mmHg 81%
    02:00 +1°C° 0 mm 4 mps 767 mmHg 84%
    03:00 +1°C° 0 mm 4 mps 767 mmHg 86%
    04:00 0°C° 0 mm 4 mps 768 mmHg 89%
    05:00 +1°C° 0 mm 3 mps 768 mmHg 88%
    06:00 +2°C° 0 mm 3 mps 769 mmHg 88%
    07:00 +2°C° 0 mm 3 mps 769 mmHg 87%
    08:00 +3°C° 0 mm 3 mps 770 mmHg 79%
    09:00 +4°C° 0 mm 3 mps 770 mmHg 71%
    10:00 +7°C° 0 mm 3 mps 771 mmHg 62%
    11:00 +6°C° 0 mm 4 mps 771 mmHg 59%
    12:00 +7°C° 0 mm 4 mps 771 mmHg 55%
    13:00 +8°C° 0 mm 4 mps 771 mmHg 51%
    14:00 +7°C° 0 mm 5 mps 770 mmHg 52%
    15:00 +7°C° 0 mm 5 mps 770 mmHg 53%
    16:00 +7°C° 0 mm 5 mps 769 mmHg 54%
    17:00 +6°C° 0 mm 5 mps 769 mmHg 59%
    18:00 +5°C° 0 mm 4 mps 769 mmHg 64%
    19:00 +4°C° 0 mm 4 mps 769 mmHg 69%
    20:00 +4°C° 0 mm 4 mps 769 mmHg 74%
    21:00 +5°C° 0 mm 5 mps 768 mmHg 79%
    22:00 +4°C° 0 mm 6 mps 768 mmHg 83%
    23:00 +5°C° 0 mm 5 mps 768 mmHg 82%
    Show more